Location: Usti nad Labem
(50.6670°N, 14.0330°E)
Time: 22:41:20
(UTC+01:00)

Envisat - Pass Details

Date: 04 December 2020
Orbit: 764 x 766 km, 98.1° (Epoch: 15 January)

Event Time Altitude Azimuth Distance (km) Brightness Sun altitude
Rises 06:04:47 0° 15° (NNE) 3,246 6.2 -15.4°
Reaches altitude 10° 06:07:06 10° 16° (NNE) 2,315 5.5 -15.1°
Maximum altitude 06:12:13 80° 104° (ESE) 784 3.1 -14.3°
Drops below altitude 10° 06:17:18 10° 192° (SSW) 2,297 5.6 -13.6°
Sets 06:19:35 0° 193° (SSW) 3,218 6.3 -13.2°
